User: anonymous   Login
Location: Norwich
(52.6280°N, 1.3030°E)
Time: 02:59:49
(UTC+01:00)
Language:

Meteor 1-22 Rocket - Orbit

View from above orbital plane
View from above orbital plane
View from above satellite
View from above satellite

Ground track
Ground track

The orbit data is extracted from the following two-line orbital elements,

1  8294U 75087B   17289.54398028 +.00000273 +00000-0 +14351-3 0  9995
2  8294 081.2090 264.2299 0107446 059.6265 301.5474 14.08579644161688
Epoch (UTC): 16 October 2017 13:03:19
Eccentricity: 0.0107446
inclination: 81.2090°
perigee height: 786 km
apogee height: 942 km
right ascension of ascending node: 264.2299°
argument of perigee: 59.6265°
revolutions per day: 14.08579644
mean anomaly at epoch: 301.5474°
orbit number at epoch: 16168

The dashed part of the orbit path shows where the satellite is in the earth's shadow,  

DLR